Powrót do katalogu

STARLINK-35817

AktywnyŁącznośćVLEO
NORAD 66357·PAYLOAD·🇺🇸 United States

Wystrzelony Nov 6, 2025 z Vandenberg Space Force Base

Loading…

Następne Przeloty (najbliższe 24 godziny)

TLE

ŚwieżeSource: CelesTrak SupGP

Epoka: Sep 14, 2026, 22:44 UTC

1 66357C 25254K   26257.94770833  .00050549  00000+0  14939-2 0  2575
2 66357  53.1577  71.5068 0001224  82.7698  82.0597 15.34355948    12

Śledź STARLINK-35817 w czasie rzeczywistym z AllMySat

Download on the App Store